"Pseudo-MPEC" for 6D52621

Created 2026 Apr 11 7:35:02 UT using Find_Orb

Click here for an explanation of pseudo-MPECs

 
 Astrometry: 
     6D52621*KC2026 04 06.24945 13 16 48.84 -11 45 52.4    ~467K 16.5 GVNEOCPW94
     6D52621 KC2026 04 06.25564 13 16 48.06 -11 45 56.3    ~467K 15.5 GVNEOCPW94
     6D52621 KC2026 04 06.26189 13 16 47.74 -11 45 54.7    ~467K 16.5 GVNEOCPW94

Station data:
(W94) AMACS1, San Pedro de Atacama  (S22.953074 W68.179810)  Chile.  Observers
   A. Maury, G. Attard. Measurers A. Maury, G. Attard, D. Parrott. 0.28-m
   f/2.2 Schmidt + CCD.

Orbital elements:  6D52621
   Perihelion 2025 Oct 10.883244 +/- 298 TT = 21:11:52.2 (JD 2460959.383244)
Epoch 2026 Apr  6.0 TT = JDT 2461136.5   Earth MOID: 0.7705      AutoNEOCP
M  58.232771362 +/- 80              (J2000 ecliptic)
n   0.328781830 +/- 0.168           Peri.  109.290946 +/- 110
a   2.079046373 +/- 0.71            Node    12.155939 +/- 39
e   0.17965118 +/- 0.175            Incl.   13.462094 +/- 22
P   2.99776                H 14.80  G  0.15   U 11.6  SR
q 1.705543221 +/- 0.597    Q 2.452549524 +/- 1.26
From 3 observations 2026 Apr. 6 (17.9 min); mean residual 1".46
Residuals in arcseconds: 
260406 W94  1.2+  .93+    260406 W94  2.3-  1.8-    260406 W94  1.1+  .91+    

Ephemerides (geocentric):
Date (UTC) HH   RA             Dec           delta  r     elong  mag " sig PA
---- --------  ------------   ------------  ------ ------ -----  --- --------
2026 04 11 08  13 09 38.374   -12 00 19.86  .94835 1.9491 175.7 16.4  32d  82
2026 04 11 09  13 09 34.870   -12 00 26.26  .94844 1.9492 175.7 16.4  32d  82
2026 04 11 10  13 09 31.368   -12 00 32.64  .94852 1.9492 175.7 16.4  32d  82
2026 04 11 11  13 09 27.866   -12 00 39.02  .94861 1.9493 175.7 16.4  32d  82
2026 04 11 12  13 09 24.365   -12 00 45.38  .94870 1.9494 175.6 16.4  32d  82
2026 04 11 13  13 09 20.865   -12 00 51.74  .94878 1.9495 175.6 16.4  32d  82
2026 04 11 14  13 09 17.366   -12 00 58.08  .94887 1.9496 175.6 16.4  32d  82
2026 04 11 15  13 09 13.867   -12 01 04.41  .94896 1.9497 175.6 16.4  32d  82
2026 04 11 16  13 09 10.370   -12 01 10.74  .94905 1.9498 175.6 16.4  32d  82
2026 04 11 17  13 09 06.873   -12 01 17.05  .94914 1.9499 175.6 16.4  32d  82
2026 04 11 18  13 09 03.377   -12 01 23.35  .94923 1.9500 175.5 16.4  32d  82
2026 04 11 19  13 08 59.882   -12 01 29.64  .94932 1.9500 175.5 16.4  32d  82
2026 04 11 20  13 08 56.388   -12 01 35.93  .94941 1.9501 175.5 16.4  32d  82
2026 04 11 21  13 08 52.895   -12 01 42.20  .94950 1.9502 175.5 16.4  32d  82
2026 04 11 22  13 08 49.403   -12 01 48.46  .94959 1.9503 175.5 16.4  32d  82
2026 04 11 23  13 08 45.911   -12 01 54.71  .94968 1.9504 175.4 16.4  32d  82
2026 04 12 00  13 08 42.421   -12 02 00.95  .94977 1.9505 175.4 16.4  32d  82
2026 04 12 01  13 08 38.931   -12 02 07.18  .94987 1.9506 175.4 16.4  32d  82
2026 04 12 02  13 08 35.443   -12 02 13.40  .94996 1.9507 175.4 16.4  32d  82
2026 04 12 03  13 08 31.955   -12 02 19.61  .95005 1.9508 175.4 16.4  32d  82
2026 04 12 04  13 08 28.468   -12 02 25.82  .95015 1.9509 175.3 16.4  32d  82
2026 04 12 05  13 08 24.983   -12 02 32.01  .95024 1.9509 175.3 16.4  32d  82
2026 04 12 06  13 08 21.498   -12 02 38.19  .95034 1.9510 175.3 16.4  32d  82
2026 04 12 07  13 08 18.014   -12 02 44.36  .95043 1.9511 175.3 16.4  32d  82
2026 04 12 08  13 08 14.531   -12 02 50.52  .95053 1.9512 175.2 16.4  32d  82
2026 04 12 09  13 08 11.049   -12 02 56.67  .95062 1.9513 175.2 16.4  32d  82
2026 04 12 10  13 08 07.569   -12 03 02.81  .95072 1.9514 175.2 16.4  32d  82
2026 04 12 11  13 08 04.089   -12 03 08.94  .95082 1.9515 175.2 16.4  32d  82
2026 04 12 12  13 08 00.610   -12 03 15.06  .95091 1.9516 175.1 16.4  32d  82
2026 04 12 13  13 07 57.132   -12 03 21.18  .95101 1.9517 175.1 16.4  32d  82
2026 04 12 14  13 07 53.656   -12 03 27.28  .95111 1.9517 175.1 16.4  32d  82
2026 04 12 15  13 07 50.180   -12 03 33.37  .95121 1.9518 175.0 16.4  32d  82
2026 04 12 16  13 07 46.706   -12 03 39.45  .95131 1.9519 175.0 16.4  32d  82
2026 04 12 17  13 07 43.232   -12 03 45.52  .95141 1.9520 175.0 16.4  32d  82
2026 04 12 18  13 07 39.760   -12 03 51.59  .95151 1.9521 175.0 16.4  32d  82
2026 04 12 19  13 07 36.289   -12 03 57.64  .95161 1.9522 174.9 16.4  32d  82
2026 04 12 20  13 07 32.818   -12 04 03.68  .95171 1.9523 174.9 16.4  32d  82
2026 04 12 21  13 07 29.349   -12 04 09.72  .95181 1.9524 174.9 16.4  32d  82
2026 04 12 22  13 07 25.881   -12 04 15.74  .95191 1.9525 174.8 16.4  32d  82
2026 04 12 23  13 07 22.415   -12 04 21.76  .95201 1.9526 174.8 16.4  32d  82
2026 04 13 00  13 07 18.949   -12 04 27.76  .95212 1.9526 174.8 16.4  32d  82
2026 04 13 01  13 07 15.484   -12 04 33.76  .95222 1.9527 174.7 16.4  32d  82
2026 04 13 02  13 07 12.021   -12 04 39.74  .95232 1.9528 174.7 16.4  32d  82
2026 04 13 03  13 07 08.559   -12 04 45.72  .95243 1.9529 174.7 16.4  32d  82
2026 04 13 04  13 07 05.098   -12 04 51.68  .95253 1.9530 174.6 16.4  32d  82
2026 04 13 05  13 07 01.638   -12 04 57.64  .95264 1.9531 174.6 16.4  32d  82
2026 04 13 06  13 06 58.179   -12 05 03.59  .95274 1.9532 174.6 16.4  32d  82
2026 04 13 07  13 06 54.721   -12 05 09.54  .95285 1.9533 174.5 16.4  32d  82